IRIDIUM 33 DEB, 39594

Orbit data source: Space-Track

IRIDIUM 33 DEB, 39594 is space debris in LEO originally from a launch on Sun, 14 Sep 1997 UTC launched from the Tyuratam Missile And Space Complex (TTMTR). The debris from Iridium 33, an American commercial communications satellite, has been tracked extensively since its accidental collision with the defunct Russian satellite Cosmos 2251 in 2009. This event, occurring at high speed in low Earth orbit (LEO), generated thousands of pieces of space debris, significantly increasing the risk of further collisions. The Iridium 33 debris cloud has impacted space traffic management and orbital debris mitigation strategies, making it a subject of ongoing study in space situational awareness.

Loading next visibility...
Identifier
39594, 1997-051AAG
Orbit
LEO
Country
Flag of USUS
Related business
Manufacturer
Unknown
Mission
Spacecraft
Bus & Motor
Unknown
Mass
Unknown
Launch date (UTC)
1997-09-14 (28 years ago)
Launch vehicle
Unknown
Launch site
Tyuratam Missile And Space Complex (TTMTR)
Object type
Payload
Rocket body
Debris
Shape & HBR
Unknown
Radar Cross Section
Small (<0.1 m²)

Expand to show TLE details & history
Last TLE update: 1 year ago

TLE from 1 year ago
0 IRIDIUM 33 DEB
1 39594U 97051AAG 24241.27618107  .00055651  00000-0  89930-2 0  9990
2 39594  86.3930 241.4016 0005673   7.4613 352.6687 14.71050867568905
Epoch: 2024-08-28T06:37Z
TLE epoch observation values (Epoch: 2024-08-28T06:37:42.044Z)
Latitude
0.00003°
Longitude
164.9962°
Altitude
656.859 km
Speed
7.531 km/s
True Right ascension
16h 05m 36s
True Declination
0° 00' 00"
Sunlit
Object was in daylight at epoch
Visualization orbit readout
Latitude
Unknown
Longitude
Unknown
Altitude
Unknown
Speed
Unknown
Apparent Right ascension
Unknown
Apparent Declination
Unknown
Sunlit
N/A
Visualization observer readout
Local Sidereal Time
16:37:56
Azimuth
Unknown
Elevation
Unknown
Doppler factor
Unknown
Orbital elements
Apogee altitude
658.618 km
Perigee altitude
650.638 km
Semi-major axis
7,032.765 km
Eccentricity
0.00057
Inclination
86.393°
RAAN
241.4016°
Arg. of periapsis
7.4613°
True anomaly
352.6604°
Mean anomaly
352.6687°
Eccentric anomaly
352.66455°
Mean motion
3.68005 °/min
Orbital period
97.82 mins
BSTAR
0.008993
Loading maneuver chart data...
Computing Atmospheric mass density...

Documentation

Showing up to 5 results
|